Simultaneous Nadir Overpasses (SNOs) Predictions

Prediction of SNOs between GOES-16 and LANDSAT-8 Satellite Orbit:

Table of predicted SNOs for the next 14.0 days since TLE Epoch: 10/15/2022
Index Date Time (GOES-16) GOES-16 Lat,Lon LANDSAT-8 Lat,Lon Distance(km) Time Diff (sec)
1 10/15/2022 15:09:42 -0.08, -75.21 -0.36, -73.92 146.16 80
2 10/16/2022 03:31:06 0.07, -75.18 -0.79, -79.11 446.59 80
3 10/17/2022 14:57:32 -0.07, -75.21 -0.96, -70.97 482.35 80
4 10/18/2022 03:18:57 0.07, -75.19 -0.11, -76.17 110.25 80
5 10/20/2022 03:04:07 0.06, -75.20 0.51, -73.21 226.90 80
6 10/20/2022 15:25:23 -0.06, -75.23 0.58, -78.37 356.80 80
7 10/22/2022 15:15:52 -0.06, -75.25 -0.00, -75.41 18.90 80
8 10/24/2022 15:01:02 -0.06, -75.28 -0.66, -72.46 319.82 80
9 10/25/2022 03:25:06 0.06, -75.26 -0.46, -77.65 272.04 80
10 10/27/2022 03:10:15 0.06, -75.29 0.15, -74.69 66.94 80
11 10/29/2022 02:58:04 0.05, -75.31 0.78, -71.74 405.89 80
